Location: Ajisawe
(8.4333°N, 4.3833°E)
Time: 22:42:16
(UTC+00:00)

A-11 Canister half - Pass Details

Date: 24 April 2021
Orbit: 1514 x 1685 km, 47.2° (Epoch: 14 May)

Event Time Altitude Azimuth Distance (km) Brightness Sun altitude
Rises 03:22:26 0° 325° (NW) 4,856 11.5 -30.9°
Reaches altitude 10° 03:25:36 10° 328° (NNW) 3,889 11.0 -30.2°
Maximum altitude 03:35:31 65° 49° (NE) 1,814 9.4 -27.9°
Drops below altitude 10° 03:45:34 10° 129° (SE) 3,943 11.5 -25.5°
Sets 03:48:46 0° 132° (SE) 4,928 12.0 -24.8°
